Time,TemperatureF,DewpointF,PressureIn,WindDirection,WindDirectionDegrees,WindSpeedMPH,WindSpeedGustMPH,Humidity,HourlyPrecipIn,Conditions,Clouds,dailyrainin,SoftwareType,DateUTC
2013-02-20 00:00:00,50.1,45.8,30.24,SE,128,1.4,0.0,85,0.00,,,0.00,WeatherCatV1.15B25,2013-02-20 08:00:00,
2013-02-20 00:05:00,37.2,34.8,30.17,East,90,0.0,0.0,91,0.00,,,0.00,LWC V2.11 B50,2013-02-20 08:05:00,
2013-02-20 00:10:00,37.2,34.8,30.18,East,90,0.0,0.0,91,0.00,,,0.00,LWC V2.11 B50,2013-02-20 08:10:00,
2013-02-20 00:15:00,37.4,35.0,30.18,ENE,67,0.0,0.0,91,0.00,,,0.00,LWC V2.11 B50,2013-02-20 08:15:00,
2013-02-20 00:20:00,37.4,35.0,30.18,East,90,0.0,0.0,91,0.00,,,0.00,LWC V2.11 B50,2013-02-20 08:20:00,
2013-02-20 00:25:00,37.4,35.0,30.18,ENE,67,0.0,0.0,91,0.00,,,0.00,LWC V2.11 B50,2013-02-20 08:25:00,
2013-02-20 00:30:00,37.4,35.0,30.19,ESE,112,0.0,0.0,91,0.00,,,0.00,LWC V2.11 B50,2013-02-20 08:30:00,
2013-02-20 00:35:00,37.4,35.0,30.19,ESE,112,0.0,0.0,91,0.00,,,0.00,LWC V2.11 B50,2013-02-20 08:35:00,
2013-02-20 00:40:00,37.4,35.0,30.19,SE,135,0.0,0.0,91,0.00,,,0.00,LWC V2.11 B50,2013-02-20 08:40:00,
2013-02-20 00:45:00,37.4,35.0,30.18,East,90,0.0,0.0,91,0.00,,,0.00,LWC V2.11 B50,2013-02-20 08:45:00,
2013-02-20 00:50:00,37.6,35.2,30.18,East,90,0.0,0.0,91,0.00,,,0.00,LWC V2.11 B50,2013-02-20 08:50:00,
2013-02-20 00:55:00,37.6,35.2,30.19,East,90,0.0,0.0,91,0.00,,,0.00,LWC V2.11 B50,2013-02-20 08:55:00,
2013-02-20 01:00:00,37.6,35.2,30.19,ESE,112,0.0,0.0,91,0.00,,,0.00,LWC V2.11 B50,2013-02-20 09:00:00,
2013-02-20 01:05:00,37.6,35.2,30.18,ESE,112,0.0,0.0,91,0.00,,,0.00,LWC V2.11 B50,2013-02-20 09:05:00,
2013-02-20 01:10:00,37.6,35.2,30.19,East,90,0.0,0.0,91,0.00,,,0.00,LWC V2.11 B50,2013-02-20 09:10:00,
2013-02-20 01:15:00,50.1,45.8,30.24,SE,128,1.4,0.0,85,0.00,,,0.00,WeatherCatV1.15B25,2013-02-20 09:15:00,
2013-02-20 01:16:00,37.8,35.3,30.19,East,90,0.0,0.0,91,0.00,,,0.00,LWC V2.11 B50,2013-02-20 09:16:00,
2013-02-20 01:20:00,50.1,45.8,30.24,SE,128,1.4,0.0,85,0.00,,,0.00,WeatherCatV1.15B25,2013-02-20 09:20:00,
2013-02-20 01:21:00,37.6,35.2,30.18,ESE,112,0.0,0.0,91,0.00,,,0.00,LWC V2.11 B50,2013-02-20 09:21:00,
2013-02-20 01:25:00,50.1,45.8,30.24,SE,128,1.4,0.0,85,0.00,,,0.00,WeatherCatV1.15B25,2013-02-20 09:25:00,
2013-02-20 01:26:00,37.8,35.6,30.18,East,90,0.0,0.0,92,0.00,,,0.00,LWC V2.11 B50,2013-02-20 09:26:00,
2013-02-20 01:30:00,50.1,45.8,30.24,SE,128,1.4,0.0,85,0.00,,,0.00,WeatherCatV1.15B25,2013-02-20 09:30:00,
2013-02-20 01:31:00,37.6,35.4,30.19,East,90,0.0,0.0,92,0.00,,,0.00,LWC V2.11 B50,2013-02-20 09:31:00,
2013-02-20 01:35:00,50.1,45.8,30.24,SE,128,1.4,0.0,85,0.00,,,0.00,WeatherCatV1.15B25,2013-02-20 09:35:00,
2013-02-20 01:36:00,37.6,35.4,30.19,SE,135,0.0,0.0,92,0.00,,,0.00,LWC V2.11 B50,2013-02-20 09:36:00,
2013-02-20 01:40:00,37.4,35.0,30.18,East,86,0.0,0.0,91,0.00,,,0.00,LWC V2.11 B50,2013-02-20 09:40:00,
2013-02-20 01:41:00,37.6,35.4,30.19,ENE,67,0.0,0.0,92,0.00,,,0.00,LWC V2.11 B50,2013-02-20 09:41:00,
2013-02-20 01:45:00,50.1,45.8,30.24,SE,128,1.4,0.0,85,0.00,,,0.00,WeatherCatV1.15B25,2013-02-20 09:45:00,
2013-02-20 01:50:00,37.4,35.0,30.19,East,90,0.0,0.0,91,0.00,,,0.00,LWC V2.11 B50,2013-02-20 09:50:00,
2013-02-20 01:55:00,50.1,45.8,30.24,SE,128,1.4,0.0,85,0.00,,,0.00,WeatherCatV1.15B25,2013-02-20 09:55:00,
2013-02-20 02:00:00,37.4,35.0,30.19,ESE,106,0.0,0.0,91,0.00,,,0.00,LWC V2.11 B50,2013-02-20 10:00:00,
2013-02-20 02:05:00,50.1,45.8,30.24,SE,128,1.4,0.0,85,0.00,,,0.00,WeatherCatV1.15B25,2013-02-20 10:05:00,
2013-02-20 02:10:00,37.6,35.2,30.19,East,94,0.0,0.0,91,0.00,,,0.00,LWC V2.11 B50,2013-02-20 10:10:00,
2013-02-20 02:15:00,50.1,45.8,30.24,SE,128,1.4,0.0,85,0.00,,,0.00,WeatherCatV1.15B25,2013-02-20 10:15:00,
2013-02-20 02:20:00,55.6,44.4,30.00,NW,315,0.0,0.0,66,0.00,,,0.00,LWC V2.11 B50,2013-02-20 10:20:00,
2013-02-20 02:25:00,50.1,45.8,30.24,SE,128,1.4,0.0,85,0.00,,,0.00,WeatherCatV1.15B25,2013-02-20 10:25:00,
2013-02-20 02:30:00,55.6,44.4,30.00,NW,315,0.0,0.0,66,0.00,,,0.00,LWC V2.11 B50,2013-02-20 10:30:00,
2013-02-20 02:35:00,50.1,45.8,30.24,SE,128,1.4,0.0,85,0.00,,,0.00,WeatherCatV1.15B25,2013-02-20 10:35:00,
2013-02-20 02:40:00,55.6,44.4,30.00,NW,315,0.0,0.0,66,0.00,,,0.00,LWC V2.11 B50,2013-02-20 10:40:00,
2013-02-20 02:45:00,50.1,45.8,30.24,SE,128,1.4,0.0,85,0.00,,,0.00,WeatherCatV1.15B25,2013-02-20 10:45:00,
2013-02-20 02:50:00,55.6,44.4,30.00,NW,315,0.0,0.0,66,0.00,,,0.00,LWC V2.11 B50,2013-02-20 10:50:00,
2013-02-20 02:55:00,50.1,45.8,30.24,SE,128,1.4,0.0,85,0.00,,,0.00,WeatherCatV1.15B25,2013-02-20 10:55:00,
2013-02-20 03:00:00,50.1,45.8,30.24,SE,128,1.4,0.0,85,0.00,,,0.00,WeatherCatV1.15B25,2013-02-20 11:00:00,
2013-02-20 03:01:00,38.7,36.5,30.21,WSW,247,2.5,2.5,92,0.00,,,0.00,LWC V2.11 B50,2013-02-20 11:01:00,
2013-02-20 03:05:00,50.1,45.8,30.24,SE,128,1.4,0.0,85,0.00,,,0.00,WeatherCatV1.15B25,2013-02-20 11:05:00,
2013-02-20 03:06:00,38.7,36.5,30.21,South,180,0.0,0.0,92,0.00,,,0.00,LWC V2.11 B50,2013-02-20 11:06:00,
2013-02-20 03:10:00,50.1,45.8,30.24,SE,128,1.4,0.0,85,0.00,,,0.00,WeatherCatV1.15B25,2013-02-20 11:10:00,
2013-02-20 03:11:00,38.7,36.5,30.21,East,90,0.0,0.0,92,0.00,,,0.00,LWC V2.11 B50,2013-02-20 11:11:00,
2013-02-20 03:15:00,50.1,45.8,30.24,SE,128,1.4,0.0,85,0.00,,,0.00,WeatherCatV1.15B25,2013-02-20 11:15:00,
2013-02-20 03:16:00,38.5,36.3,30.20,SE,135,0.0,0.0,92,0.00,,,0.00,LWC V2.11 B50,2013-02-20 11:16:00,
2013-02-20 03:20:00,50.1,45.8,30.24,SE,128,1.4,0.0,85,0.00,,,0.00,WeatherCatV1.15B25,2013-02-20 11:20:00,
2013-02-20 03:21:00,38.5,36.3,30.21,SE,135,0.0,0.0,92,0.00,,,0.00,LWC V2.11 B50,2013-02-20 11:21:00,
2013-02-20 03:25:00,50.1,45.8,30.24,SE,128,1.4,0.0,85,0.00,,,0.00,WeatherCatV1.15B25,2013-02-20 11:25:00,
2013-02-20 03:26:00,38.5,36.3,30.21,SE,135,0.0,0.0,92,0.00,,,0.00,LWC V2.11 B50,2013-02-20 11:26:00,
2013-02-20 03:30:00,50.1,45.8,30.24,SE,128,1.4,0.0,85,0.00,,,0.00,WeatherCatV1.15B25,2013-02-20 11:30:00,
2013-02-20 03:31:00,38.5,36.3,30.21,SE,135,0.0,0.0,92,0.00,,,0.00,LWC V2.11 B50,2013-02-20 11:31:00,
2013-02-20 03:35:00,50.1,45.8,30.24,SE,128,1.4,0.0,85,0.00,,,0.00,WeatherCatV1.15B25,2013-02-20 11:35:00,
2013-02-20 03:36:00,38.5,36.3,30.21,SSE,157,0.0,0.0,92,0.00,,,0.00,LWC V2.11 B50,2013-02-20 11:36:00,
2013-02-20 03:40:00,50.1,45.8,30.24,SE,128,1.4,0.0,85,0.00,,,0.00,WeatherCatV1.15B25,2013-02-20 11:40:00,
2013-02-20 03:41:00,38.5,36.3,30.21,South,180,0.0,0.0,92,0.00,,,0.00,LWC V2.11 B50,2013-02-20 11:41:00,
2013-02-20 03:45:00,50.1,45.8,30.24,SE,128,1.4,0.0,85,0.00,,,0.00,WeatherCatV1.15B25,2013-02-20 11:45:00,
2013-02-20 03:46:00,38.5,36.3,30.21,SSE,157,0.0,0.0,92,0.00,,,0.00,LWC V2.11 B50,2013-02-20 11:46:00,
2013-02-20 03:50:00,50.1,45.8,30.24,SE,128,1.4,0.0,85,0.00,,,0.00,WeatherCatV1.15B25,2013-02-20 11:50:00,
2013-02-20 03:52:00,38.5,36.3,30.21,SW,225,0.0,0.0,92,0.00,,,0.00,LWC V2.11 B50,2013-02-20 11:52:00,
2013-02-20 03:55:00,50.1,45.8,30.24,SE,128,1.4,0.0,85,0.00,,,0.00,WeatherCatV1.15B25,2013-02-20 11:55:00,
2013-02-20 03:57:00,38.5,36.3,30.21,South,180,0.0,0.0,92,0.00,,,0.00,LWC V2.11 B50,2013-02-20 11:57:00,
2013-02-20 04:00:00,50.1,45.8,30.24,SE,128,1.4,0.0,85,0.00,,,0.00,WeatherCatV1.15B25,2013-02-20 12:00:00,
2013-02-20 04:02:00,38.5,36.3,30.21,East,90,0.0,0.0,92,0.00,,,0.00,LWC V2.11 B50,2013-02-20 12:02:00,
2013-02-20 04:05:00,50.1,45.8,30.24,SE,128,1.4,0.0,85,0.00,,,0.00,WeatherCatV1.15B25,2013-02-20 12:05:00,
2013-02-20 04:07:00,38.5,36.3,30.21,ENE,67,0.0,0.0,92,0.00,,,0.00,LWC V2.11 B50,2013-02-20 12:07:00,
2013-02-20 04:10:00,50.1,45.8,30.24,SE,128,1.4,0.0,85,0.00,,,0.00,WeatherCatV1.15B25,2013-02-20 12:10:00,
2013-02-20 04:12:00,38.3,36.1,30.20,ESE,112,0.0,0.0,92,0.00,,,0.00,LWC V2.11 B50,2013-02-20 12:12:00,
2013-02-20 04:15:00,50.1,45.8,30.24,SE,128,1.4,0.0,85,0.00,,,0.00,WeatherCatV1.15B25,2013-02-20 12:15:00,
2013-02-20 04:17:00,38.3,36.1,30.21,East,90,0.0,0.0,92,0.00,,,0.00,LWC V2.11 B50,2013-02-20 12:17:00,
2013-02-20 04:20:00,50.1,45.8,30.24,SE,128,1.4,0.0,85,0.00,,,0.00,WeatherCatV1.15B25,2013-02-20 12:20:00,
2013-02-20 04:22:00,38.3,36.1,30.21,SSW,202,0.0,0.0,92,0.00,,,0.00,LWC V2.11 B50,2013-02-20 12:22:00,
2013-02-20 04:25:00,50.1,45.8,30.24,SE,128,1.4,0.0,85,0.00,,,0.00,WeatherCatV1.15B25,2013-02-20 12:25:00,
2013-02-20 04:27:00,38.3,36.0,30.21,ENE,67,0.0,0.0,92,0.00,,,0.00,LWC V2.11 B50,2013-02-20 12:27:00,
2013-02-20 04:30:00,50.1,45.8,30.24,SE,128,1.4,0.0,85,0.00,,,0.00,WeatherCatV1.15B25,2013-02-20 12:30:00,
2013-02-20 04:32:00,38.1,36.0,30.21,ESE,112,0.0,0.0,92,0.00,,,0.00,LWC V2.11 B50,2013-02-20 12:32:00,
2013-02-20 04:35:00,50.1,45.8,30.24,SE,128,1.4,0.0,85,0.00,,,0.00,WeatherCatV1.15B25,2013-02-20 12:35:00,
2013-02-20 04:37:00,38.1,36.0,30.21,ESE,112,0.0,0.0,92,0.00,,,0.00,LWC V2.11 B50,2013-02-20 12:37:00,
2013-02-20 04:40:00,50.1,45.8,30.24,SE,128,1.4,0.0,85,0.00,,,0.00,WeatherCatV1.15B25,2013-02-20 12:40:00,
2013-02-20 04:42:00,37.9,35.8,30.21,ENE,67,0.0,0.0,92,0.00,,,0.00,LWC V2.11 B50,2013-02-20 12:42:00,
2013-02-20 04:45:00,50.1,45.8,30.24,SE,128,1.4,0.0,85,0.00,,,0.00,WeatherCatV1.15B25,2013-02-20 12:45:00,
2013-02-20 04:47:00,37.9,35.8,30.21,East,90,0.0,0.0,92,0.00,,,0.00,LWC V2.11 B50,2013-02-20 12:47:00,
2013-02-20 04:50:00,50.1,45.8,30.24,SE,128,1.4,0.0,85,0.00,,,0.00,WeatherCatV1.15B25,2013-02-20 12:50:00,
2013-02-20 04:52:00,37.9,35.8,30.21,ESE,112,0.0,0.0,92,0.00,,,0.00,LWC V2.11 B50,2013-02-20 12:52:00,
2013-02-20 04:55:00,50.1,45.8,30.24,SE,128,1.4,0.0,85,0.00,,,0.00,WeatherCatV1.15B25,2013-02-20 12:55:00,
2013-02-20 04:57:00,37.9,35.8,30.21,NE,45,0.0,0.0,92,0.00,,,0.00,LWC V2.11 B50,2013-02-20 12:57:00,
2013-02-20 05:00:00,50.1,45.8,30.24,SE,128,1.4,0.0,85,0.00,,,0.00,WeatherCatV1.15B25,2013-02-20 13:00:00,
2013-02-20 05:02:00,38.1,36.0,30.21,ESE,112,0.0,0.0,92,0.00,,,0.00,LWC V2.11 B50,2013-02-20 13:02:00,
2013-02-20 05:05:00,50.1,45.8,30.24,SE,128,1.4,0.0,85,0.00,,,0.00,WeatherCatV1.15B25,2013-02-20 13:05:00,
2013-02-20 05:08:00,38.1,36.0,30.20,ENE,67,0.0,0.0,92,0.00,,,0.00,LWC V2.11 B50,2013-02-20 13:08:00,
2013-02-20 05:10:00,50.1,45.8,30.24,SE,128,1.4,0.0,85,0.00,,,0.00,WeatherCatV1.15B25,2013-02-20 13:10:00,
2013-02-20 05:13:00,38.1,36.0,30.21,ESE,112,0.0,0.0,92,0.00,,,0.00,LWC V2.11 B50,2013-02-20 13:13:00,
2013-02-20 05:15:00,50.1,45.8,30.24,SE,128,1.4,0.0,85,0.00,,,0.00,WeatherCatV1.15B25,2013-02-20 13:15:00,
2013-02-20 05:18:00,38.1,36.0,30.21,SE,135,0.0,0.0,92,0.00,,,0.00,LWC V2.11 B50,2013-02-20 13:18:00,
2013-02-20 05:20:00,50.1,45.8,30.24,SE,128,1.4,0.0,85,0.00,,,0.00,WeatherCatV1.15B25,2013-02-20 13:20:00,
2013-02-20 05:23:00,38.1,36.1,30.21,NE,45,0.0,0.0,92,0.00,,,0.00,LWC V2.11 B50,2013-02-20 13:23:00,
2013-02-20 05:25:00,50.1,45.8,30.24,SE,128,1.4,0.0,85,0.00,,,0.00,WeatherCatV1.15B25,2013-02-20 13:25:00,
2013-02-20 05:28:00,38.3,36.1,30.21,East,90,0.0,0.0,92,0.00,,,0.00,LWC V2.11 B50,2013-02-20 13:28:00,
2013-02-20 05:30:00,50.1,45.8,30.24,SE,128,1.4,0.0,85,0.00,,,0.00,WeatherCatV1.15B25,2013-02-20 13:30:00,
2013-02-20 05:33:00,38.3,36.1,30.20,ENE,67,0.0,0.0,92,0.00,,,0.00,LWC V2.11 B50,2013-02-20 13:33:00,
2013-02-20 05:35:00,50.1,45.8,30.24,SE,128,1.4,0.0,85,0.00,,,0.00,WeatherCatV1.15B25,2013-02-20 13:35:00,
2013-02-20 05:38:00,38.3,36.1,30.21,NE,45,0.0,0.0,92,0.00,,,0.00,LWC V2.11 B50,2013-02-20 13:38:00,
2013-02-20 05:40:00,50.1,45.8,30.24,SE,128,1.4,0.0,85,0.00,,,0.00,WeatherCatV1.15B25,2013-02-20 13:40:00,
2013-02-20 05:43:00,38.1,36.0,30.20,ESE,112,0.0,0.0,92,0.00,,,0.00,LWC V2.11 B50,2013-02-20 13:43:00,
2013-02-20 05:45:00,50.1,45.8,30.24,SE,128,1.4,0.0,85,0.00,,,0.00,WeatherCatV1.15B25,2013-02-20 13:45:00,
2013-02-20 05:48:00,38.1,36.0,30.21,East,90,0.0,0.0,92,0.00,,,0.00,LWC V2.11 B50,2013-02-20 13:48:00,
2013-02-20 05:50:00,50.1,45.8,30.24,SE,128,1.4,0.0,85,0.00,,,0.00,WeatherCatV1.15B25,2013-02-20 13:50:00,
2013-02-20 05:53:00,38.1,36.0,30.20,ESE,112,0.0,0.0,92,0.00,,,0.00,LWC V2.11 B50,2013-02-20 13:53:00,
2013-02-20 05:55:00,50.1,45.8,30.24,SE,128,1.4,0.0,85,0.00,,,0.00,WeatherCatV1.15B25,2013-02-20 13:55:00,
2013-02-20 05:58:00,38.1,36.0,30.20,East,90,0.0,0.0,92,0.00,,,0.00,LWC V2.11 B50,2013-02-20 13:58:00,
2013-02-20 06:00:00,50.1,45.8,30.24,SE,128,1.4,0.0,85,0.00,,,0.00,WeatherCatV1.15B25,2013-02-20 14:00:00,
2013-02-20 06:05:00,50.1,45.8,30.24,SE,128,1.4,0.0,85,0.00,,,0.00,WeatherCatV1.15B25,2013-02-20 14:05:00,
2013-02-20 06:10:00,50.1,45.8,30.24,SE,128,1.4,0.0,85,0.00,,,0.00,WeatherCatV1.15B25,2013-02-20 14:10:00,
2013-02-20 06:15:00,50.1,45.8,30.24,SE,128,1.4,0.0,85,0.00,,,0.00,WeatherCatV1.15B25,2013-02-20 14:15:00,
2013-02-20 06:20:00,50.1,45.8,30.24,SE,128,1.4,0.0,85,0.00,,,0.00,WeatherCatV1.15B25,2013-02-20 14:20:00,
2013-02-20 06:25:00,50.1,45.8,30.24,SE,128,1.4,0.0,85,0.00,,,0.00,WeatherCatV1.15B25,2013-02-20 14:25:00,
2013-02-20 06:30:00,38.1,36.1,30.19,ESE,112,0.0,0.0,92,0.00,,,0.00,LWC V2.11 B50,2013-02-20 14:30:00,
2013-02-20 06:35:00,38.3,36.1,30.18,East,90,0.0,0.0,92,0.00,,,0.00,LWC V2.11 B50,2013-02-20 14:35:00,
2013-02-20 06:40:00,38.3,36.1,30.19,East,90,0.0,0.0,92,0.00,,,0.00,LWC V2.11 B50,2013-02-20 14:40:00,
2013-02-20 06:45:00,38.3,36.1,30.19,East,90,0.0,0.0,92,0.00,,,0.00,LWC V2.11 B50,2013-02-20 14:45:00,
2013-02-20 06:50:00,38.5,36.3,30.18,East,90,0.0,0.0,92,0.00,,,0.00,LWC V2.11 B50,2013-02-20 14:50:00,
2013-02-20 06:55:00,38.5,36.3,30.18,ESE,112,0.0,0.0,92,0.00,,,0.00,LWC V2.11 B50,2013-02-20 14:55:00,
2013-02-20 07:00:00,38.5,36.3,30.19,SE,135,0.0,0.0,92,0.00,,,0.00,LWC V2.11 B50,2013-02-20 15:00:00,
2013-02-20 07:05:00,50.1,45.8,30.24,SE,128,1.4,0.0,85,0.00,,,0.00,WeatherCatV1.15B25,2013-02-20 15:05:00,
2013-02-20 07:06:00,38.8,36.7,30.18,SE,135,0.0,0.0,92,0.00,,,0.00,LWC V2.11 B50,2013-02-20 15:06:00,
2013-02-20 07:10:00,50.1,45.8,30.24,SE,128,1.4,0.0,85,0.00,,,0.00,WeatherCatV1.15B25,2013-02-20 15:10:00,
2013-02-20 07:11:00,38.8,36.7,30.18,East,90,0.0,0.0,92,0.00,,,0.00,LWC V2.11 B50,2013-02-20 15:11:00,
2013-02-20 07:15:00,50.1,45.8,30.24,SE,128,1.4,0.0,85,0.00,,,0.00,WeatherCatV1.15B25,2013-02-20 15:15:00,
2013-02-20 07:16:00,38.8,36.7,30.18,East,90,0.0,0.0,92,0.00,,,0.00,LWC V2.11 B50,2013-02-20 15:16:00,
2013-02-20 07:20:00,50.1,45.8,30.24,SE,128,1.4,0.0,85,0.00,,,0.00,WeatherCatV1.15B25,2013-02-20 15:20:00,
2013-02-20 07:21:00,39.0,37.1,30.18,SE,135,0.0,0.0,93,0.00,,,0.00,LWC V2.11 B50,2013-02-20 15:21:00,
2013-02-20 07:25:00,50.1,45.8,30.24,SE,128,1.4,0.0,85,0.00,,,0.00,WeatherCatV1.15B25,2013-02-20 15:25:00,
2013-02-20 07:26:00,38.8,36.7,30.18,ESE,112,0.0,0.0,92,0.00,,,0.00,LWC V2.11 B50,2013-02-20 15:26:00,
2013-02-20 07:30:00,50.1,45.8,30.24,SE,128,1.4,0.0,85,0.00,,,0.00,WeatherCatV1.15B25,2013-02-20 15:30:00,
2013-02-20 07:31:00,39.0,37.1,30.18,SSE,157,0.0,0.0,93,0.00,,,0.00,LWC V2.11 B50,2013-02-20 15:31:00,
2013-02-20 07:35:00,50.1,45.8,30.24,SE,128,1.4,0.0,85,0.00,,,0.00,WeatherCatV1.15B25,2013-02-20 15:35:00,
2013-02-20 07:36:00,39.0,37.1,30.18,West,270,0.0,0.0,93,0.00,,,0.00,LWC V2.11 B50,2013-02-20 15:36:00,
2013-02-20 07:40:00,50.1,45.8,30.24,SE,128,1.4,0.0,85,0.00,,,0.00,WeatherCatV1.15B25,2013-02-20 15:40:00,
2013-02-20 07:41:00,39.0,37.1,30.18,ENE,67,0.0,0.0,93,0.00,,,0.00,LWC V2.11 B50,2013-02-20 15:41:00,
2013-02-20 07:45:00,50.1,45.8,30.24,SE,128,1.4,0.0,85,0.00,,,0.00,WeatherCatV1.15B25,2013-02-20 15:45:00,
2013-02-20 07:46:00,39.0,37.1,30.18,East,90,0.0,0.0,93,0.00,,,0.00,LWC V2.11 B50,2013-02-20 15:46:00,
2013-02-20 07:50:00,50.1,45.8,30.24,SE,128,1.4,0.0,85,0.00,,,0.00,WeatherCatV1.15B25,2013-02-20 15:50:00,
2013-02-20 07:51:00,39.2,37.3,30.18,East,90,0.0,0.0,93,0.00,,,0.00,LWC V2.11 B50,2013-02-20 15:51:00,
2013-02-20 07:55:00,50.1,45.8,30.24,SE,128,1.4,0.0,85,0.00,,,0.00,WeatherCatV1.15B25,2013-02-20 15:55:00,
2013-02-20 07:56:00,39.4,37.5,30.18,ESE,112,0.0,0.0,93,0.00,,,0.00,LWC V2.11 B50,2013-02-20 15:56:00,
2013-02-20 08:00:00,50.1,45.8,30.24,SE,128,1.4,0.0,85,0.00,,,0.00,WeatherCatV1.15B25,2013-02-20 16:00:00,
2013-02-20 08:01:00,39.4,37.5,30.18,NE,45,0.0,0.0,93,0.00,,,0.00,LWC V2.11 B50,2013-02-20 16:01:00,
2013-02-20 08:05:00,50.1,45.8,30.24,SE,128,1.4,0.0,85,0.00,,,0.00,WeatherCatV1.15B25,2013-02-20 16:05:00,
2013-02-20 08:06:00,39.4,37.5,30.17,ESE,112,0.0,0.0,93,0.00,,,0.00,LWC V2.11 B50,2013-02-20 16:06:00,
2013-02-20 08:10:00,50.1,45.8,30.24,SE,128,1.4,0.0,85,0.00,,,0.00,WeatherCatV1.15B25,2013-02-20 16:10:00,
2013-02-20 08:11:00,39.4,37.5,30.17,SSE,157,0.0,0.0,93,0.00,,,0.00,LWC V2.11 B50,2013-02-20 16:11:00,
2013-02-20 08:15:00,50.1,45.8,30.24,SE,128,1.4,0.0,85,0.00,,,0.00,WeatherCatV1.15B25,2013-02-20 16:15:00,
2013-02-20 08:17:00,39.4,37.5,30.17,SSE,157,0.0,0.0,93,0.00,,,0.00,LWC V2.11 B50,2013-02-20 16:17:00,
2013-02-20 08:20:00,50.1,45.8,30.24,SE,128,1.4,0.0,85,0.00,,,0.00,WeatherCatV1.15B25,2013-02-20 16:20:00,
2013-02-20 08:22:00,39.4,37.5,30.17,SSE,157,0.0,0.0,93,0.00,,,0.00,LWC V2.11 B50,2013-02-20 16:22:00,
2013-02-20 08:25:00,50.1,45.8,30.24,SE,128,1.4,0.0,85,0.00,,,0.00,WeatherCatV1.15B25,2013-02-20 16:25:00,
2013-02-20 08:27:00,39.6,37.7,30.17,SSE,157,0.0,0.0,93,0.00,,,0.00,LWC V2.11 B50,2013-02-20 16:27:00,
2013-02-20 08:30:00,50.1,45.8,30.24,SE,128,1.4,0.0,85,0.00,,,0.00,WeatherCatV1.15B25,2013-02-20 16:30:00,
2013-02-20 08:32:00,39.6,37.7,30.17,SSE,157,0.0,0.0,93,0.00,,,0.00,LWC V2.11 B50,2013-02-20 16:32:00,
2013-02-20 08:35:00,50.1,45.8,30.24,SE,128,1.4,0.0,85,0.00,,,0.00,WeatherCatV1.15B25,2013-02-20 16:35:00,
2013-02-20 08:37:00,39.7,37.8,30.17,ENE,67,0.0,0.0,93,0.00,,,0.00,LWC V2.11 B50,2013-02-20 16:37:00,
2013-02-20 08:40:00,50.1,45.8,30.24,SE,128,1.4,0.0,85,0.00,,,0.00,WeatherCatV1.15B25,2013-02-20 16:40:00,
2013-02-20 08:42:00,39.9,38.0,30.18,SSW,202,0.0,0.0,93,0.00,,,0.00,LWC V2.11 B50,2013-02-20 16:42:00,
2013-02-20 08:45:00,50.1,45.8,30.24,SE,128,1.4,0.0,85,0.00,,,0.00,WeatherCatV1.15B25,2013-02-20 16:45:00,
2013-02-20 08:47:00,39.9,38.0,30.17,South,180,0.0,0.0,93,0.00,,,0.00,LWC V2.11 B50,2013-02-20 16:47:00,
2013-02-20 08:50:00,50.1,45.8,30.24,SE,128,1.4,0.0,85,0.00,,,0.00,WeatherCatV1.15B25,2013-02-20 16:50:00,
2013-02-20 08:52:00,40.1,38.2,30.18,ESE,112,0.0,0.0,93,0.00,,,0.00,LWC V2.11 B50,2013-02-20 16:52:00,
2013-02-20 08:55:00,50.1,45.8,30.24,SE,128,1.4,0.0,85,0.00,,,0.00,WeatherCatV1.15B25,2013-02-20 16:55:00,
2013-02-20 08:57:00,40.3,38.6,30.17,ENE,67,0.0,0.0,93,0.00,,,0.00,LWC V2.11 B50,2013-02-20 16:57:00,
2013-02-20 09:00:00,50.1,45.8,30.24,SE,128,1.4,0.0,85,0.00,,,0.00,WeatherCatV1.15B25,2013-02-20 17:00:00,
2013-02-20 09:02:00,40.3,38.4,30.17,WNW,292,0.0,0.0,93,0.00,,,0.00,LWC V2.11 B50,2013-02-20 17:02:00,
2013-02-20 09:05:00,50.1,45.8,30.24,SE,128,1.4,0.0,85,0.00,,,0.00,WeatherCatV1.15B25,2013-02-20 17:05:00,
2013-02-20 09:07:00,40.6,38.5,30.17,SSE,157,0.0,0.0,92,0.00,,,0.00,LWC V2.11 B50,2013-02-20 17:07:00,
2013-02-20 09:10:00,50.1,45.8,30.24,SE,128,1.4,0.0,85,0.00,,,0.00,WeatherCatV1.15B25,2013-02-20 17:10:00,
2013-02-20 09:12:00,40.8,38.7,30.18,South,180,0.0,0.0,92,0.00,,,0.00,LWC V2.11 B50,2013-02-20 17:12:00,
2013-02-20 09:15:00,50.1,45.8,30.24,SE,128,1.4,0.0,85,0.00,,,0.00,WeatherCatV1.15B25,2013-02-20 17:15:00,
2013-02-20 09:17:00,40.8,38.7,30.18,South,180,0.0,0.0,92,0.00,,,0.00,LWC V2.11 B50,2013-02-20 17:17:00,
2013-02-20 09:20:00,50.1,45.8,30.24,SE,128,1.4,0.0,85,0.00,,,0.00,WeatherCatV1.15B25,2013-02-20 17:20:00,
2013-02-20 09:22:00,40.8,38.7,30.18,SSW,202,0.0,0.0,92,0.00,,,0.00,LWC V2.11 B50,2013-02-20 17:22:00,
2013-02-20 09:25:00,50.1,45.8,30.24,SE,128,1.4,0.0,85,0.00,,,0.00,WeatherCatV1.15B25,2013-02-20 17:25:00,
2013-02-20 09:27:00,40.8,38.7,30.17,NNE,22,0.0,0.0,92,0.00,,,0.00,LWC V2.11 B50,2013-02-20 17:27:00,
2013-02-20 09:30:00,50.1,45.8,30.24,SE,128,1.4,0.0,85,0.00,,,0.00,WeatherCatV1.15B25,2013-02-20 17:30:00,
2013-02-20 09:33:00,41.2,39.0,30.18,South,180,0.0,0.0,92,0.00,,,0.00,LWC V2.11 B50,2013-02-20 17:33:00,
2013-02-20 09:35:00,50.1,45.8,30.24,SE,128,1.4,0.0,85,0.00,,,0.00,WeatherCatV1.15B25,2013-02-20 17:35:00,
2013-02-20 09:38:00,41.2,39.3,30.17,South,180,0.0,0.0,93,0.00,,,0.00,LWC V2.11 B50,2013-02-20 17:38:00,
2013-02-20 09:40:00,50.1,45.8,30.24,SE,128,1.4,0.0,85,0.00,,,0.00,WeatherCatV1.15B25,2013-02-20 17:40:00,
2013-02-20 09:43:00,41.5,39.7,30.17,ESE,112,0.0,0.0,93,0.00,,,0.00,LWC V2.11 B50,2013-02-20 17:43:00,
2013-02-20 09:45:00,50.1,45.8,30.24,SE,128,1.4,0.0,85,0.00,,,0.00,WeatherCatV1.15B25,2013-02-20 17:45:00,
2013-02-20 09:48:00,41.5,39.7,30.17,NE,45,0.0,0.0,93,0.00,,,0.00,LWC V2.11 B50,2013-02-20 17:48:00,
2013-02-20 09:50:00,50.1,45.8,30.24,SE,128,1.4,0.0,85,0.00,,,0.00,WeatherCatV1.15B25,2013-02-20 17:50:00,
2013-02-20 09:53:00,41.7,39.7,30.17,SSW,202,0.0,0.0,92,0.00,,,0.00,LWC V2.11 B50,2013-02-20 17:53:00,
2013-02-20 09:55:00,50.1,45.8,30.24,SE,128,1.4,0.0,85,0.00,,,0.00,WeatherCatV1.15B25,2013-02-20 17:55:00,
2013-02-20 09:58:00,42.1,39.9,30.16,East,90,0.0,0.0,92,0.00,,,0.00,LWC V2.11 B50,2013-02-20 17:58:00,
2013-02-20 10:00:00,50.1,45.8,30.24,SE,128,1.4,0.0,85,0.00,,,0.00,WeatherCatV1.15B25,2013-02-20 18:00:00,
2013-02-20 10:03:00,42.1,39.9,30.17,North,0,0.0,0.0,92,0.00,,,0.00,LWC V2.11 B50,2013-02-20 18:03:00,
2013-02-20 10:05:00,50.1,45.8,30.24,SE,128,1.4,0.0,85,0.00,,,0.00,WeatherCatV1.15B25,2013-02-20 18:05:00,
2013-02-20 10:08:00,42.4,40.3,30.17,WSW,247,0.0,0.0,92,0.00,,,0.00,LWC V2.11 B50,2013-02-20 18:08:00,
2013-02-20 10:10:00,50.1,45.8,30.24,SE,128,1.4,0.0,85,0.00,,,0.00,WeatherCatV1.15B25,2013-02-20 18:10:00,
2013-02-20 10:13:00,42.6,40.5,30.17,NW,315,0.0,0.0,92,0.00,,,0.00,LWC V2.11 B50,2013-02-20 18:13:00,
2013-02-20 10:15:00,50.1,45.8,30.24,SE,128,1.4,0.0,85,0.00,,,0.00,WeatherCatV1.15B25,2013-02-20 18:15:00,
2013-02-20 10:18:00,43.0,40.8,30.17,SW,225,4.5,4.5,92,0.00,,,0.00,LWC V2.11 B50,2013-02-20 18:18:00,
2013-02-20 10:20:00,50.1,45.8,30.24,SE,128,1.4,0.0,85,0.00,,,0.00,WeatherCatV1.15B25,2013-02-20 18:20:00,
2013-02-20 10:25:00,50.1,45.8,30.24,SE,128,1.4,0.0,85,0.00,,,0.00,WeatherCatV1.15B25,2013-02-20 18:25:00,
2013-02-20 10:30:00,50.1,45.8,30.24,SE,128,1.4,0.0,85,0.00,,,0.00,WeatherCatV1.15B25,2013-02-20 18:30:00,
2013-02-20 10:35:00,43.0,40.5,30.17,SW,225,4.2,4.2,91,0.00,,,0.00,LWC V2.11 B50,2013-02-20 18:35:00,
2013-02-20 10:40:00,43.3,40.9,30.17,WSW,247,3.8,3.8,91,0.00,,,0.00,LWC V2.11 B50,2013-02-20 18:40:00,
2013-02-20 10:45:00,43.5,41.1,30.17,SW,225,4.0,4.0,91,0.00,,,0.00,LWC V2.11 B50,2013-02-20 18:45:00,
2013-02-20 10:50:00,43.5,41.1,30.17,SW,225,5.8,5.8,91,0.00,,,0.00,LWC V2.11 B50,2013-02-20 18:50:00,
2013-02-20 10:55:00,43.9,41.5,30.17,WSW,247,5.1,5.1,91,0.00,,,0.00,LWC V2.11 B50,2013-02-20 18:55:00,
2013-02-20 11:00:00,44.2,41.8,30.17,WSW,247,4.5,4.5,91,0.00,,,0.00,LWC V2.11 B50,2013-02-20 19:00:00,
2013-02-20 11:05:00,44.4,42.0,30.17,West,270,3.6,3.6,91,0.00,,,0.00,LWC V2.11 B50,2013-02-20 19:05:00,
2013-02-20 11:10:00,44.4,41.7,30.17,WSW,247,4.0,4.9,90,0.00,,,0.00,LWC V2.11 B50,2013-02-20 19:10:00,
2013-02-20 11:15:00,44.4,41.7,30.17,SW,225,4.0,4.0,90,0.00,,,0.00,LWC V2.11 B50,2013-02-20 19:15:00,
2013-02-20 11:20:00,44.4,41.7,30.17,SW,225,3.4,5.4,90,0.00,,,0.00,LWC V2.11 B50,2013-02-20 19:20:00,
2013-02-20 11:25:00,44.4,41.7,30.17,West,270,4.7,7.4,90,0.00,,,0.00,LWC V2.11 B50,2013-02-20 19:25:00,
2013-02-20 11:30:00,44.8,41.8,30.17,SW,225,3.4,3.4,89,0.00,,,0.00,LWC V2.11 B50,2013-02-20 19:30:00,
2013-02-20 11:35:00,45.0,42.0,30.17,SW,225,3.1,5.4,89,0.00,,,0.00,LWC V2.11 B50,2013-02-20 19:35:00,
2013-02-20 11:40:00,50.1,45.8,30.24,SE,128,1.4,0.0,85,0.00,,,0.00,WeatherCatV1.15B25,2013-02-20 19:40:00,
2013-02-20 11:41:00,45.1,42.1,30.17,WSW,247,2.9,2.9,89,0.00,,,0.00,LWC V2.11 B50,2013-02-20 19:41:00,
2013-02-20 11:45:00,50.1,45.8,30.24,SE,128,1.4,0.0,85,0.00,,,0.00,WeatherCatV1.15B25,2013-02-20 19:45:00,
2013-02-20 11:46:00,45.5,42.5,30.16,SW,225,0.0,0.0,89,0.00,,,0.00,LWC V2.11 B50,2013-02-20 19:46:00,
2013-02-20 11:50:00,50.1,45.8,30.24,SE,128,1.4,0.0,85,0.00,,,0.00,WeatherCatV1.15B25,2013-02-20 19:50:00,
2013-02-20 11:51:00,46.0,43.0,30.16,WSW,247,1.3,1.3,89,0.00,,,0.00,LWC V2.11 B50,2013-02-20 19:51:00,
2013-02-20 11:55:00,50.1,45.8,30.24,SE,128,1.4,0.0,85,0.00,,,0.00,WeatherCatV1.15B25,2013-02-20 19:55:00,
2013-02-20 11:56:00,46.0,42.7,30.16,WSW,247,1.3,1.3,88,0.00,,,0.00,LWC V2.11 B50,2013-02-20 19:56:00,
2013-02-20 12:00:00,50.1,45.8,30.24,SE,128,1.4,0.0,85,0.00,,,0.00,WeatherCatV1.15B25,2013-02-20 20:00:00,
2013-02-20 12:01:00,46.2,42.9,30.16,SW,225,3.1,3.1,88,0.00,,,0.00,LWC V2.11 B50,2013-02-20 20:01:00,
2013-02-20 12:05:00,50.1,45.8,30.24,SE,128,1.4,0.0,85,0.00,,,0.00,WeatherCatV1.15B25,2013-02-20 20:05:00,
2013-02-20 12:06:00,46.2,42.9,30.16,South,180,0.0,3.1,88,0.00,,,0.00,LWC V2.11 B50,2013-02-20 20:06:00,
2013-02-20 12:10:00,50.1,45.8,30.24,SE,128,1.4,0.0,85,0.00,,,0.00,WeatherCatV1.15B25,2013-02-20 20:10:00,
2013-02-20 12:11:00,46.2,42.6,30.16,WSW,247,0.0,0.0,87,0.00,,,0.00,LWC V2.11 B50,2013-02-20 20:11:00,
2013-02-20 12:15:00,50.1,45.8,30.24,SE,128,1.4,0.0,85,0.00,,,0.00,WeatherCatV1.15B25,2013-02-20 20:15:00,
2013-02-20 12:16:00,46.6,42.9,30.16,SW,225,3.8,3.8,87,0.00,,,0.00,LWC V2.11 B50,2013-02-20 20:16:00,
2013-02-20 12:20:00,50.1,45.8,30.24,SE,128,1.4,0.0,85,0.00,,,0.00,WeatherCatV1.15B25,2013-02-20 20:20:00,
2013-02-20 12:21:00,46.6,42.9,30.16,WSW,247,0.0,0.0,87,0.00,,,0.00,LWC V2.11 B50,2013-02-20 20:21:00,
2013-02-20 12:25:00,50.1,45.8,30.24,SE,128,1.4,0.0,85,0.00,,,0.00,WeatherCatV1.15B25,2013-02-20 20:25:00,
2013-02-20 12:26:00,46.6,42.6,30.16,SSW,202,5.6,5.6,86,0.00,,,0.00,LWC V2.11 B50,2013-02-20 20:26:00,
2013-02-20 12:30:00,50.1,45.8,30.24,SE,128,1.4,0.0,85,0.00,,,0.00,WeatherCatV1.15B25,2013-02-20 20:30:00,
2013-02-20 12:31:00,46.2,42.3,30.16,WSW,247,2.9,4.0,86,0.00,,,0.00,LWC V2.11 B50,2013-02-20 20:31:00,
2013-02-20 12:35:00,50.1,45.8,30.24,SE,128,1.4,0.0,85,0.00,,,0.00,WeatherCatV1.15B25,2013-02-20 20:35:00,
2013-02-20 12:36:00,46.2,42.0,30.15,SW,225,4.0,4.0,85,0.00,,,0.00,LWC V2.11 B50,2013-02-20 20:36:00,
2013-02-20 12:40:00,50.1,45.8,30.24,SE,128,1.4,0.0,85,0.00,,,0.00,WeatherCatV1.15B25,2013-02-20 20:40:00,
2013-02-20 12:41:00,46.2,42.0,30.15,WSW,247,2.0,2.0,85,0.00,,,0.00,LWC V2.11 B50,2013-02-20 20:41:00,
2013-02-20 12:45:00,50.1,45.8,30.24,SE,128,1.4,0.0,85,0.00,,,0.00,WeatherCatV1.15B25,2013-02-20 20:45:00,
2013-02-20 12:46:00,46.2,41.7,30.15,WSW,247,7.6,7.6,84,0.00,,,0.00,LWC V2.11 B50,2013-02-20 20:46:00,
2013-02-20 12:50:00,50.1,45.8,30.24,SE,128,1.4,0.0,85,0.00,,,0.00,WeatherCatV1.15B25,2013-02-20 20:50:00,
2013-02-20 12:51:00,46.2,41.7,30.15,WSW,247,2.9,2.9,84,0.00,,,0.00,LWC V2.11 B50,2013-02-20 20:51:00,
2013-02-20 12:55:00,50.1,45.8,30.24,SE,128,1.4,0.0,85,0.00,,,0.00,WeatherCatV1.15B25,2013-02-20 20:55:00,
2013-02-20 12:57:00,46.2,41.7,30.15,SW,225,6.5,12.1,83,0.00,,,0.00,LWC V2.11 B50,2013-02-20 20:57:00,
2013-02-20 13:00:00,50.1,45.8,30.24,SE,128,1.4,0.0,85,0.00,,,0.00,WeatherCatV1.15B25,2013-02-20 21:00:00,
2013-02-20 13:02:00,46.0,41.5,30.15,SSW,202,3.4,3.4,84,0.00,,,0.00,LWC V2.11 B50,2013-02-20 21:02:00,
2013-02-20 13:05:00,50.1,45.8,30.24,SE,128,1.4,0.0,85,0.00,,,0.00,WeatherCatV1.15B25,2013-02-20 21:05:00,
2013-02-20 13:07:00,46.0,41.5,30.15,WSW,247,0.0,0.0,84,0.00,,,0.00,LWC V2.11 B50,2013-02-20 21:07:00,
2013-02-20 13:10:00,50.1,45.8,30.24,SE,128,1.4,0.0,85,0.00,,,0.00,WeatherCatV1.15B25,2013-02-20 21:10:00,
2013-02-20 13:12:00,46.0,41.5,30.15,WSW,247,4.9,5.1,83,0.00,,,0.00,LWC V2.11 B50,2013-02-20 21:12:00,
2013-02-20 13:15:00,50.1,45.8,30.24,SE,128,1.4,0.0,85,0.00,,,0.00,WeatherCatV1.15B25,2013-02-20 21:15:00,
2013-02-20 13:17:00,46.0,41.2,30.14,South,180,6.7,6.7,83,0.00,,,0.00,LWC V2.11 B50,2013-02-20 21:17:00,
2013-02-20 13:20:00,50.1,45.8,30.24,SE,128,1.4,0.0,85,0.00,,,0.00,WeatherCatV1.15B25,2013-02-20 21:20:00,
2013-02-20 13:22:00,46.0,41.2,30.14,SSW,202,1.1,1.1,83,0.00,,,0.00,LWC V2.11 B50,2013-02-20 21:22:00,
2013-02-20 13:25:00,50.1,45.8,30.24,SE,128,1.4,0.0,85,0.00,,,0.00,WeatherCatV1.15B25,2013-02-20 21:25:00,
2013-02-20 13:27:00,46.0,41.2,30.14,WSW,247,4.5,4.5,83,0.00,,,0.00,LWC V2.11 B50,2013-02-20 21:27:00,
2013-02-20 13:30:00,50.1,45.8,30.24,SE,128,1.4,0.0,85,0.00,,,0.00,WeatherCatV1.15B25,2013-02-20 21:30:00,
2013-02-20 13:32:00,46.2,41.4,30.14,West,270,4.2,4.2,83,0.00,,,0.00,LWC V2.11 B50,2013-02-20 21:32:00,
2013-02-20 13:35:00,50.1,45.8,30.24,SE,128,1.4,0.0,85,0.00,,,0.00,WeatherCatV1.15B25,2013-02-20 21:35:00,
2013-02-20 13:37:00,46.0,41.2,30.14,SSW,202,5.8,5.8,82,0.00,,,0.00,LWC V2.11 B50,2013-02-20 21:37:00,
2013-02-20 13:40:00,50.1,45.8,30.24,SE,128,1.4,0.0,85,0.00,,,0.00,WeatherCatV1.15B25,2013-02-20 21:40:00,
2013-02-20 13:42:00,46.2,41.1,30.14,SSW,202,8.5,8.5,82,0.00,,,0.00,LWC V2.11 B50,2013-02-20 21:42:00,
2013-02-20 13:45:00,50.1,45.8,30.24,SE,128,1.4,0.0,85,0.00,,,0.00,WeatherCatV1.15B25,2013-02-20 21:45:00,
2013-02-20 13:47:00,46.2,41.1,30.14,SW,225,3.8,3.8,82,0.00,,,0.00,LWC V2.11 B50,2013-02-20 21:47:00,
2013-02-20 13:50:00,50.1,45.8,30.24,SE,128,1.4,0.0,85,0.00,,,0.00,WeatherCatV1.15B25,2013-02-20 21:50:00,
2013-02-20 13:52:00,46.2,41.1,30.14,SSW,202,7.8,7.8,82,0.00,,,0.00,LWC V2.11 B50,2013-02-20 21:52:00,
2013-02-20 13:55:00,50.1,45.8,30.24,SE,128,1.4,0.0,85,0.00,,,0.00,WeatherCatV1.15B25,2013-02-20 21:55:00,
2013-02-20 13:57:00,46.2,41.1,30.14,SW,225,3.4,3.4,82,0.00,,,0.00,LWC V2.11 B50,2013-02-20 21:57:00,
2013-02-20 14:00:00,50.1,45.8,30.24,SE,128,1.4,0.0,85,0.00,,,0.00,WeatherCatV1.15B25,2013-02-20 22:00:00,
2013-02-20 14:02:00,46.2,41.1,30.14,SW,225,4.0,4.0,82,0.00,,,0.00,LWC V2.11 B50,2013-02-20 22:02:00,
2013-02-20 14:05:00,50.1,45.8,30.24,SE,128,1.4,0.0,85,0.00,,,0.00,WeatherCatV1.15B25,2013-02-20 22:05:00,
2013-02-20 14:07:00,46.2,41.1,30.13,WSW,247,3.6,3.6,82,0.00,,,0.00,LWC V2.11 B50,2013-02-20 22:07:00,
2013-02-20 14:10:00,50.1,45.8,30.24,SE,128,1.4,0.0,85,0.00,,,0.00,WeatherCatV1.15B25,2013-02-20 22:10:00,
2013-02-20 14:13:00,46.2,41.1,30.13,WSW,247,8.1,8.1,82,0.00,,,0.00,LWC V2.11 B50,2013-02-20 22:13:00,
2013-02-20 14:15:00,50.1,45.8,30.24,SE,128,1.4,0.0,85,0.00,,,0.00,WeatherCatV1.15B25,2013-02-20 22:15:00,
2013-02-20 14:18:00,46.2,41.1,30.14,South,180,0.0,0.0,82,0.00,,,0.00,LWC V2.11 B50,2013-02-20 22:18:00,
2013-02-20 14:20:00,50.1,45.8,30.24,SE,128,1.4,0.0,85,0.00,,,0.00,WeatherCatV1.15B25,2013-02-20 22:20:00,
2013-02-20 14:23:00,46.2,41.1,30.14,WSW,247,4.9,4.9,82,0.00,,,0.00,LWC V2.11 B50,2013-02-20 22:23:00,
2013-02-20 14:25:00,50.1,45.8,30.24,SE,128,1.4,0.0,85,0.00,,,0.00,WeatherCatV1.15B25,2013-02-20 22:25:00,
2013-02-20 14:28:00,46.2,41.1,30.14,SW,225,4.9,4.9,82,0.00,,,0.00,LWC V2.11 B50,2013-02-20 22:28:00,
2013-02-20 14:30:00,50.1,45.8,30.24,SE,128,1.4,0.0,85,0.00,,,0.00,WeatherCatV1.15B25,2013-02-20 22:30:00,
2013-02-20 14:33:00,46.2,41.1,30.14,SSW,202,3.4,4.2,82,0.00,,,0.00,LWC V2.11 B50,2013-02-20 22:33:00,
2013-02-20 14:35:00,50.1,45.8,30.24,SE,128,1.4,0.0,85,0.00,,,0.00,WeatherCatV1.15B25,2013-02-20 22:35:00,
2013-02-20 14:38:00,46.2,41.4,30.14,SW,225,4.7,4.7,83,0.00,,,0.00,LWC V2.11 B50,2013-02-20 22:38:00,
2013-02-20 14:40:00,50.1,45.8,30.24,SE,128,1.4,0.0,85,0.00,,,0.00,WeatherCatV1.15B25,2013-02-20 22:40:00,
2013-02-20 14:43:00,46.2,41.4,30.13,SSE,157,0.0,0.0,83,0.00,,,0.00,LWC V2.11 B50,2013-02-20 22:43:00,
2013-02-20 14:45:00,50.1,45.8,30.24,SE,128,1.4,0.0,85,0.00,,,0.00,WeatherCatV1.15B25,2013-02-20 22:45:00,
2013-02-20 14:48:00,46.2,41.4,30.14,SSE,157,0.0,2.0,83,0.00,,,0.00,LWC V2.11 B50,2013-02-20 22:48:00,
2013-02-20 14:50:00,50.1,45.8,30.24,SE,128,1.4,0.0,85,0.00,,,0.00,WeatherCatV1.15B25,2013-02-20 22:50:00,
2013-02-20 14:53:00,46.2,41.4,30.14,WSW,247,0.0,0.0,83,0.00,,,0.00,LWC V2.11 B50,2013-02-20 22:53:00,
2013-02-20 14:55:00,50.1,45.8,30.24,SE,128,1.4,0.0,85,0.00,,,0.00,WeatherCatV1.15B25,2013-02-20 22:55:00,
2013-02-20 14:58:00,46.2,41.4,30.14,SSW,202,0.0,0.0,83,0.00,,,0.00,LWC V2.11 B50,2013-02-20 22:58:00,
2013-02-20 15:00:00,50.1,45.8,30.24,SE,128,1.4,0.0,85,0.00,,,0.00,WeatherCatV1.15B25,2013-02-20 23:00:00,
2013-02-20 15:03:00,46.2,41.4,30.14,SSE,157,0.0,1.3,83,0.00,,,0.00,LWC V2.11 B50,2013-02-20 23:03:00,
2013-02-20 15:05:00,50.1,45.8,30.24,SE,128,1.4,0.0,85,0.00,,,0.00,WeatherCatV1.15B25,2013-02-20 23:05:00,
2013-02-20 15:08:00,46.0,41.2,30.15,SW,225,0.0,0.0,83,0.00,,,0.00,LWC V2.11 B50,2013-02-20 23:08:00,
2013-02-20 15:10:00,50.1,45.8,30.24,SE,128,1.4,0.0,85,0.00,,,0.00,WeatherCatV1.15B25,2013-02-20 23:10:00,
2013-02-20 15:13:00,46.0,41.2,30.15,West,270,0.0,0.0,83,0.00,,,0.00,LWC V2.11 B50,2013-02-20 23:13:00,
2013-02-20 15:15:00,50.1,45.8,30.24,SE,128,1.4,0.0,85,0.00,,,0.00,WeatherCatV1.15B25,2013-02-20 23:15:00,
2013-02-20 15:18:00,45.7,40.8,30.15,SSW,202,0.0,0.0,83,0.00,,,0.00,LWC V2.11 B50,2013-02-20 23:18:00,
2013-02-20 15:20:00,50.1,45.8,30.24,SE,128,1.4,0.0,85,0.00,,,0.00,WeatherCatV1.15B25,2013-02-20 23:20:00,
2013-02-20 15:23:00,45.7,40.8,30.15,SSE,157,0.0,0.0,83,0.00,,,0.00,LWC V2.11 B50,2013-02-20 23:23:00,
2013-02-20 15:25:00,50.1,45.8,30.24,SE,128,1.4,0.0,85,0.00,,,0.00,WeatherCatV1.15B25,2013-02-20 23:25:00,
2013-02-20 15:29:00,45.3,40.7,30.15,SSW,202,0.0,6.0,83,0.00,,,0.00,LWC V2.11 B50,2013-02-20 23:29:00,
2013-02-20 15:30:00,50.1,45.8,30.24,SE,128,1.4,0.0,85,0.00,,,0.00,WeatherCatV1.15B25,2013-02-20 23:30:00,
2013-02-20 15:34:00,45.1,40.6,30.16,SW,225,0.0,1.1,84,0.00,,,0.00,LWC V2.11 B50,2013-02-20 23:34:00,
2013-02-20 15:35:00,50.1,45.8,30.24,SE,128,1.4,0.0,85,0.00,,,0.00,WeatherCatV1.15B25,2013-02-20 23:35:00,
2013-02-20 15:39:00,45.0,40.4,30.16,SSE,157,0.0,0.0,84,0.00,,,0.00,LWC V2.11 B50,2013-02-20 23:39:00,
2013-02-20 15:40:00,50.1,45.8,30.24,SE,128,1.4,0.0,85,0.00,,,0.00,WeatherCatV1.15B25,2013-02-20 23:40:00,
2013-02-20 15:44:00,44.8,40.5,30.16,SSW,202,1.1,1.3,85,0.00,,,0.00,LWC V2.11 B50,2013-02-20 23:44:00,
2013-02-20 15:45:00,50.1,45.8,30.24,SE,128,1.4,0.0,85,0.00,,,0.00,WeatherCatV1.15B25,2013-02-20 23:45:00,
2013-02-20 15:49:00,44.4,40.2,30.16,WSW,247,1.1,1.1,85,0.02,,,0.02,LWC V2.11 B50,2013-02-20 23:49:00,
2013-02-20 15:50:00,50.1,45.8,30.24,SE,128,1.4,0.0,85,0.00,,,0.00,WeatherCatV1.15B25,2013-02-20 23:50:00,
2013-02-20 15:54:00,44.4,40.2,30.16,SSW,202,0.0,0.0,85,0.02,,,0.02,LWC V2.11 B50,2013-02-20 23:54:00,
2013-02-20 15:55:00,50.1,45.8,30.24,SE,128,1.4,0.0,85,0.00,,,0.00,WeatherCatV1.15B25,2013-02-20 23:55:00,
2013-02-20 15:59:00,44.2,40.3,30.16,SW,225,0.0,0.0,86,0.02,,,0.02,LWC V2.11 B50,2013-02-20 23:59:00,
2013-02-20 16:00:00,50.1,45.8,30.24,SE,128,1.4,0.0,85,0.00,,,0.00,WeatherCatV1.15B25,2013-02-21 00:00:00,
2013-02-20 16:04:00,44.2,40.3,30.16,SW,225,2.5,2.5,86,0.02,,,0.02,LWC V2.11 B50,2013-02-21 00:04:00,
2013-02-20 16:05:00,50.1,45.8,30.24,SE,128,1.4,0.0,85,0.00,,,0.00,WeatherCatV1.15B25,2013-02-21 00:05:00,
2013-02-20 16:09:00,44.1,40.1,30.16,SW,225,0.0,0.0,86,0.02,,,0.02,LWC V2.11 B50,2013-02-21 00:09:00,
2013-02-20 16:10:00,50.1,45.8,30.24,SE,128,1.4,0.0,85,0.00,,,0.00,WeatherCatV1.15B25,2013-02-21 00:10:00,
2013-02-20 16:14:00,43.9,40.0,30.16,SE,135,0.0,0.0,86,0.04,,,0.04,LWC V2.11 B50,2013-02-21 00:14:00,
2013-02-20 16:15:00,50.1,45.8,30.24,SE,128,1.4,0.0,85,0.00,,,0.00,WeatherCatV1.15B25,2013-02-21 00:15:00,
2013-02-20 16:19:00,43.9,40.3,30.16,SSE,157,0.0,0.0,87,0.04,,,0.04,LWC V2.11 B50,2013-02-21 00:19:00,
2013-02-20 16:20:00,50.1,45.8,30.24,SE,128,1.4,0.0,85,0.00,,,0.00,WeatherCatV1.15B25,2013-02-21 00:20:00,
2013-02-20 16:24:00,43.9,40.3,30.16,SSE,157,0.0,0.0,87,0.04,,,0.04,LWC V2.11 B50,2013-02-21 00:24:00,
2013-02-20 16:25:00,50.1,45.8,30.24,SE,128,1.4,0.0,85,0.00,,,0.00,WeatherCatV1.15B25,2013-02-21 00:25:00,
2013-02-20 16:29:00,43.7,40.1,30.16,SSW,202,0.0,0.0,87,0.04,,,0.04,LWC V2.11 B50,2013-02-21 00:29:00,
2013-02-20 16:30:00,50.1,45.8,30.24,SE,127,1.4,0.0,85,0.00,,,0.00,WeatherCatV1.15B25,2013-02-21 00:30:00,
2013-02-20 16:34:00,43.9,40.3,30.15,South,180,0.0,0.0,87,0.04,,,0.04,LWC V2.11 B50,2013-02-21 00:34:00,
2013-02-20 16:35:00,50.1,45.8,30.24,SE,127,1.4,0.0,85,0.00,,,0.00,WeatherCatV1.15B25,2013-02-21 00:35:00,
2013-02-20 16:40:00,43.7,40.1,30.16,SSE,157,0.0,0.0,87,0.04,,,0.04,LWC V2.11 B50,2013-02-21 00:40:00,
2013-02-20 16:45:00,43.7,40.1,30.16,SE,135,0.0,0.0,87,0.02,,,0.04,LWC V2.11 B50,2013-02-21 00:45:00,
2013-02-20 16:50:00,43.5,39.9,30.16,SSE,157,0.0,0.0,87,0.04,,,0.06,LWC V2.11 B50,2013-02-21 00:50:00,
2013-02-20 16:55:00,43.5,39.9,30.15,SSE,157,0.0,0.0,87,0.04,,,0.06,LWC V2.11 B50,2013-02-21 00:55:00,
2013-02-20 17:00:00,43.5,39.9,30.16,South,180,0.0,0.0,87,0.04,,,0.06,LWC V2.11 B50,2013-02-21 01:00:00,
2013-02-20 17:05:00,43.3,39.7,30.15,SSE,157,0.0,0.0,87,0.04,,,0.06,LWC V2.11 B50,2013-02-21 01:05:00,
2013-02-20 17:10:00,43.3,39.7,30.16,SSE,157,0.0,0.0,87,0.02,,,0.06,LWC V2.11 B50,2013-02-21 01:10:00,
2013-02-20 17:15:00,43.2,39.8,30.16,ESE,112,0.0,0.0,88,0.04,,,0.08,LWC V2.11 B50,2013-02-21 01:15:00,
2013-02-20 17:20:00,43.2,39.8,30.16,ESE,112,0.0,0.0,88,0.04,,,0.08,LWC V2.11 B50,2013-02-21 01:20:00,
2013-02-20 17:25:00,43.0,39.7,30.16,ESE,112,0.0,0.0,88,0.04,,,0.08,LWC V2.11 B50,2013-02-21 01:25:00,
2013-02-20 17:30:00,43.0,39.7,30.16,SSW,202,0.0,0.0,88,0.04,,,0.08,LWC V2.11 B50,2013-02-21 01:30:00,
2013-02-20 17:35:00,43.0,39.7,30.16,SW,225,0.0,0.0,88,0.04,,,0.08,LWC V2.11 B50,2013-02-21 01:35:00,
2013-02-20 17:40:00,42.6,39.3,30.16,SSE,157,0.0,0.0,88,0.04,,,0.08,LWC V2.11 B50,2013-02-21 01:40:00,
2013-02-20 17:45:00,42.6,39.3,30.16,South,180,0.0,0.0,88,0.02,,,0.08,LWC V2.11 B50,2013-02-21 01:45:00,
2013-02-20 17:50:00,42.6,39.3,30.16,SE,135,0.0,0.0,88,0.02,,,0.08,LWC V2.11 B50,2013-02-21 01:50:00,
2013-02-20 17:55:00,50.1,45.8,30.24,SE,127,1.4,0.0,85,0.00,,,0.00,WeatherCatV1.15B25,2013-02-21 01:55:00,
2013-02-20 17:56:00,42.6,39.3,30.16,ESE,112,0.0,0.0,88,0.02,,,0.08,LWC V2.11 B50,2013-02-21 01:56:00,
2013-02-20 18:00:00,50.1,45.8,30.24,SE,127,1.4,0.0,85,0.00,,,0.00,WeatherCatV1.15B25,2013-02-21 02:00:00,
2013-02-20 18:01:00,42.4,39.1,30.16,SE,135,0.0,0.0,88,0.02,,,0.08,LWC V2.11 B50,2013-02-21 02:01:00,
2013-02-20 18:05:00,50.1,45.8,30.24,SE,127,1.4,0.0,85,0.00,,,0.00,WeatherCatV1.15B25,2013-02-21 02:05:00,
2013-02-20 18:06:00,42.3,38.9,30.16,SE,135,0.0,0.0,88,0.04,,,0.10,LWC V2.11 B50,2013-02-21 02:06:00,
2013-02-20 18:10:00,50.1,45.8,30.24,SE,127,1.4,0.0,85,0.00,,,0.00,WeatherCatV1.15B25,2013-02-21 02:10:00,
2013-02-20 18:11:00,42.1,38.8,30.16,ENE,67,0.0,0.0,88,0.02,,,0.10,LWC V2.11 B50,2013-02-21 02:11:00,
2013-02-20 18:15:00,50.1,45.8,30.24,SE,127,1.4,0.0,85,0.00,,,0.00,WeatherCatV1.15B25,2013-02-21 02:15:00,
2013-02-20 18:16:00,42.1,39.1,30.16,North,0,0.0,0.0,89,0.02,,,0.10,LWC V2.11 B50,2013-02-21 02:16:00,
2013-02-20 18:20:00,50.1,45.8,30.24,SE,127,1.4,0.0,85,0.00,,,0.00,WeatherCatV1.15B25,2013-02-21 02:20:00,
2013-02-20 18:21:00,42.1,39.1,30.16,SE,135,0.0,0.0,89,0.02,,,0.10,LWC V2.11 B50,2013-02-21 02:21:00,
2013-02-20 18:25:00,50.1,45.8,30.24,SE,127,1.4,0.0,85,0.00,,,0.00,WeatherCatV1.15B25,2013-02-21 02:25:00,
2013-02-20 18:26:00,41.9,38.9,30.16,SE,135,0.0,0.0,89,0.02,,,0.10,LWC V2.11 B50,2013-02-21 02:26:00,
2013-02-20 18:30:00,50.1,45.8,30.24,SE,127,1.4,0.0,85,0.00,,,0.00,WeatherCatV1.15B25,2013-02-21 02:30:00,
2013-02-20 18:31:00,41.9,38.9,30.16,SE,135,0.0,0.0,89,0.02,,,0.10,LWC V2.11 B50,2013-02-21 02:31:00,
2013-02-20 18:35:00,50.1,45.8,30.24,SE,127,1.4,0.0,85,0.00,,,0.00,WeatherCatV1.15B25,2013-02-21 02:35:00,
2013-02-20 18:36:00,41.7,38.7,30.16,NE,45,0.0,0.0,89,0.02,,,0.10,LWC V2.11 B50,2013-02-21 02:36:00,
2013-02-20 18:40:00,50.1,45.8,30.24,SE,127,1.4,0.0,85,0.00,,,0.00,WeatherCatV1.15B25,2013-02-21 02:40:00,
2013-02-20 18:41:00,41.5,38.5,30.16,North,0,0.0,0.0,89,0.02,,,0.10,LWC V2.11 B50,2013-02-21 02:41:00,
2013-02-20 18:45:00,50.1,45.8,30.24,SE,127,1.4,0.0,85,0.00,,,0.00,WeatherCatV1.15B25,2013-02-21 02:45:00,
2013-02-20 18:46:00,41.5,38.5,30.16,SE,135,0.0,0.0,89,0.02,,,0.10,LWC V2.11 B50,2013-02-21 02:46:00,
2013-02-20 18:50:00,50.1,45.8,30.24,SE,127,1.4,0.0,85,0.00,,,0.00,WeatherCatV1.15B25,2013-02-21 02:50:00,
2013-02-20 18:51:00,41.5,38.2,30.16,SE,135,0.0,0.0,88,0.02,,,0.10,LWC V2.11 B50,2013-02-21 02:51:00,
2013-02-20 18:55:00,50.1,45.8,30.24,SE,127,1.4,0.0,85,0.00,,,0.00,WeatherCatV1.15B25,2013-02-21 02:55:00,
2013-02-20 18:56:00,41.5,38.4,30.16,SE,135,0.0,0.0,89,0.02,,,0.10,LWC V2.11 B50,2013-02-21 02:56:00,
2013-02-20 19:00:00,50.1,45.8,30.24,SE,127,1.4,0.0,85,0.00,,,0.00,WeatherCatV1.15B25,2013-02-21 03:00:00,
2013-02-20 19:01:00,41.4,38.4,30.17,SE,135,0.0,0.0,89,0.00,,,0.10,LWC V2.11 B50,2013-02-21 03:01:00,
2013-02-20 19:05:00,50.1,45.8,30.24,SE,127,1.4,0.0,85,0.00,,,0.00,WeatherCatV1.15B25,2013-02-21 03:05:00,
2013-02-20 19:06:00,41.2,38.2,30.17,ESE,112,0.0,0.0,89,0.00,,,0.10,LWC V2.11 B50,2013-02-21 03:06:00,
2013-02-20 19:10:00,50.1,45.8,30.24,SE,127,1.4,0.0,85,0.00,,,0.00,WeatherCatV1.15B25,2013-02-21 03:10:00,
2013-02-20 19:12:00,41.2,38.2,30.16,ESE,112,0.0,0.0,89,0.00,,,0.10,LWC V2.11 B50,2013-02-21 03:12:00,
2013-02-20 19:15:00,50.1,45.8,30.24,SE,127,1.4,0.0,85,0.00,,,0.00,WeatherCatV1.15B25,2013-02-21 03:15:00,
2013-02-20 19:17:00,41.2,38.2,30.17,NE,45,0.0,0.0,89,0.00,,,0.10,LWC V2.11 B50,2013-02-21 03:17:00,
2013-02-20 19:20:00,50.1,45.8,30.24,SE,127,1.4,0.0,85,0.00,,,0.00,WeatherCatV1.15B25,2013-02-21 03:20:00,
2013-02-20 19:22:00,41.0,38.0,30.17,SSW,202,0.0,0.0,89,0.00,,,0.10,LWC V2.11 B50,2013-02-21 03:22:00,
2013-02-20 19:25:00,50.1,45.8,30.24,SE,127,1.4,0.0,85,0.00,,,0.00,WeatherCatV1.15B25,2013-02-21 03:25:00,
2013-02-20 19:27:00,41.0,38.0,30.17,East,90,0.0,0.0,89,0.00,,,0.10,LWC V2.11 B50,2013-02-21 03:27:00,
2013-02-20 19:30:00,50.1,45.8,30.24,SE,127,1.4,0.0,85,0.00,,,0.00,WeatherCatV1.15B25,2013-02-21 03:30:00,
2013-02-20 19:32:00,41.0,38.0,30.17,ESE,112,0.0,0.0,89,0.00,,,0.10,LWC V2.11 B50,2013-02-21 03:32:00,
2013-02-20 19:35:00,50.1,45.8,30.24,SE,127,1.4,0.0,85,0.00,,,0.00,WeatherCatV1.15B25,2013-02-21 03:35:00,
2013-02-20 19:37:00,40.8,37.8,30.17,ESE,112,0.0,0.0,89,0.00,,,0.10,LWC V2.11 B50,2013-02-21 03:37:00,
2013-02-20 19:40:00,50.1,45.8,30.24,SE,127,1.4,0.0,85,0.00,,,0.00,WeatherCatV1.15B25,2013-02-21 03:40:00,
2013-02-20 19:42:00,41.0,38.3,30.17,SE,135,0.0,0.0,90,0.00,,,0.10,LWC V2.11 B50,2013-02-21 03:42:00,
2013-02-20 19:45:00,50.1,45.8,30.24,SE,127,1.4,0.0,85,0.00,,,0.00,WeatherCatV1.15B25,2013-02-21 03:45:00,
2013-02-20 19:47:00,40.8,38.1,30.17,SE,135,0.0,0.0,90,0.00,,,0.10,LWC V2.11 B50,2013-02-21 03:47:00,
2013-02-20 19:50:00,50.1,45.8,30.24,SE,127,1.4,0.0,85,0.00,,,0.00,WeatherCatV1.15B25,2013-02-21 03:50:00,
2013-02-20 19:52:00,41.0,38.1,30.17,SE,135,0.0,0.0,90,0.00,,,0.10,LWC V2.11 B50,2013-02-21 03:52:00,
2013-02-20 19:55:00,50.1,45.8,30.24,SE,127,1.4,0.0,85,0.00,,,0.00,WeatherCatV1.15B25,2013-02-21 03:55:00,
2013-02-20 19:57:00,40.8,38.1,30.17,ENE,67,0.0,0.0,90,0.00,,,0.10,LWC V2.11 B50,2013-02-21 03:57:00,
2013-02-20 20:00:00,50.1,45.8,30.24,SE,127,1.4,0.0,85,0.00,,,0.00,WeatherCatV1.15B25,2013-02-21 04:00:00,
2013-02-20 20:02:00,40.8,38.1,30.17,SE,135,0.0,0.0,90,0.00,,,0.10,LWC V2.11 B50,2013-02-21 04:02:00,
2013-02-20 20:05:00,50.1,45.8,30.24,SE,127,1.4,0.0,85,0.00,,,0.00,WeatherCatV1.15B25,2013-02-21 04:05:00,
2013-02-20 20:07:00,40.8,38.1,30.16,SSE,157,0.0,0.0,90,0.00,,,0.10,LWC V2.11 B50,2013-02-21 04:07:00,
2013-02-20 20:10:00,50.1,45.8,30.24,SE,127,1.4,0.0,85,0.00,,,0.00,WeatherCatV1.15B25,2013-02-21 04:10:00,
2013-02-20 20:12:00,40.8,38.1,30.17,SE,135,0.0,0.0,90,0.00,,,0.10,LWC V2.11 B50,2013-02-21 04:12:00,
2013-02-20 20:15:00,50.1,45.8,30.24,SE,127,1.4,0.0,85,0.00,,,0.00,WeatherCatV1.15B25,2013-02-21 04:15:00,
2013-02-20 20:17:00,40.8,38.1,30.17,SE,135,0.0,0.0,90,0.00,,,0.10,LWC V2.11 B50,2013-02-21 04:17:00,
2013-02-20 20:20:00,50.1,45.8,30.24,SE,127,1.4,0.0,85,0.00,,,0.00,WeatherCatV1.15B25,2013-02-21 04:20:00,
2013-02-20 20:22:00,40.8,38.1,30.17,East,90,0.0,0.0,90,0.00,,,0.10,LWC V2.11 B50,2013-02-21 04:22:00,
2013-02-20 20:25:00,50.1,45.8,30.24,SE,127,1.4,0.0,85,0.00,,,0.00,WeatherCatV1.15B25,2013-02-21 04:25:00,
2013-02-20 20:27:00,40.8,38.1,30.17,SSE,157,0.0,0.0,90,0.00,,,0.10,LWC V2.11 B50,2013-02-21 04:27:00,
2013-02-20 20:30:00,50.1,45.8,30.24,SE,127,1.4,0.0,85,0.00,,,0.00,WeatherCatV1.15B25,2013-02-21 04:30:00,
2013-02-20 20:32:00,40.8,38.1,30.16,ESE,112,0.0,0.0,90,0.00,,,0.10,LWC V2.11 B50,2013-02-21 04:32:00,
2013-02-20 20:35:00,50.1,45.8,30.24,SE,127,1.4,0.0,85,0.00,,,0.00,WeatherCatV1.15B25,2013-02-21 04:35:00,
2013-02-20 20:37:00,40.8,38.1,30.17,SSE,157,0.0,0.0,90,0.00,,,0.10,LWC V2.11 B50,2013-02-21 04:37:00,
2013-02-20 20:40:00,50.1,45.8,30.24,SE,127,1.4,0.0,85,0.00,,,0.00,WeatherCatV1.15B25,2013-02-21 04:40:00,
2013-02-20 20:42:00,40.8,38.1,30.17,East,90,0.0,0.0,90,0.00,,,0.10,LWC V2.11 B50,2013-02-21 04:42:00,
2013-02-20 20:45:00,50.1,45.8,30.24,SE,127,1.4,0.0,85,0.00,,,0.00,WeatherCatV1.15B25,2013-02-21 04:45:00,
2013-02-20 20:48:00,40.8,38.1,30.17,SSW,202,0.0,0.0,90,0.00,,,0.10,LWC V2.11 B50,2013-02-21 04:48:00,
2013-02-20 20:50:00,50.1,45.8,30.24,SE,127,1.4,0.0,85,0.00,,,0.00,WeatherCatV1.15B25,2013-02-21 04:50:00,
2013-02-20 20:53:00,40.8,38.1,30.18,SW,225,0.7,0.7,90,0.00,,,0.10,LWC V2.11 B50,2013-02-21 04:53:00,
2013-02-20 20:55:00,50.1,45.8,30.24,SE,127,1.4,0.0,85,0.00,,,0.00,WeatherCatV1.15B25,2013-02-21 04:55:00,
2013-02-20 20:58:00,40.8,38.4,30.17,South,180,0.0,0.0,91,0.00,,,0.10,LWC V2.11 B50,2013-02-21 04:58:00,
2013-02-20 21:00:00,40.8,38.4,30.17,South,180,0.0,0.0,91,0.00,,,0.10,LWC V2.11 B50,2013-02-21 05:00:00,
2013-02-20 21:05:00,40.8,38.4,30.18,SW,225,0.0,0.0,91,0.00,,,0.10,LWC V2.11 B50,2013-02-21 05:05:00,
2013-02-20 21:10:00,40.8,38.4,30.18,South,180,0.9,2.7,91,0.00,,,0.10,LWC V2.11 B50,2013-02-21 05:10:00,
2013-02-20 21:15:00,40.8,38.4,30.17,SE,135,0.0,0.9,91,0.00,,,0.10,LWC V2.11 B50,2013-02-21 05:15:00,
2013-02-20 21:20:00,40.8,38.4,30.17,South,180,0.0,0.0,91,0.00,,,0.10,LWC V2.11 B50,2013-02-21 05:20:00,
2013-02-20 21:25:00,40.6,38.2,30.17,SE,135,0.0,0.0,91,0.00,,,0.10,LWC V2.11 B50,2013-02-21 05:25:00,
2013-02-20 21:30:00,40.6,38.2,30.17,East,90,0.0,0.0,91,0.00,,,0.10,LWC V2.11 B50,2013-02-21 05:30:00,
2013-02-20 21:35:00,40.6,38.2,30.16,South,180,0.0,0.0,91,0.00,,,0.10,LWC V2.11 B50,2013-02-21 05:35:00,
2013-02-20 21:40:00,40.5,38.0,30.17,SSW,202,0.0,0.0,91,0.00,,,0.10,LWC V2.11 B50,2013-02-21 05:40:00,
2013-02-20 21:45:00,40.5,38.0,30.18,WNW,292,0.0,0.0,91,0.00,,,0.10,LWC V2.11 B50,2013-02-21 05:45:00,
2013-02-20 21:50:00,40.3,37.8,30.17,SSE,157,0.0,0.0,91,0.00,,,0.10,LWC V2.11 B50,2013-02-21 05:50:00,
2013-02-20 21:55:00,40.3,37.8,30.18,SSE,157,0.0,0.0,91,0.00,,,0.10,LWC V2.11 B50,2013-02-21 05:55:00,
2013-02-20 21:57:00,40.3,37.8,30.18,South,180,0.0,0.0,91,0.00,,,0.10,LWC V2.11 B50,2013-02-21 05:57:00,
2013-02-20 22:00:00,50.1,45.8,30.24,SE,127,1.4,0.0,85,0.00,,,0.00,WeatherCatV1.15B25,2013-02-21 06:00:00,
2013-02-20 22:02:00,40.1,37.9,30.18,SE,135,0.0,0.0,92,0.00,,,0.10,LWC V2.11 B50,2013-02-21 06:02:00,
2013-02-20 22:05:00,50.1,45.8,30.24,SE,127,1.4,0.0,85,0.00,,,0.00,WeatherCatV1.15B25,2013-02-21 06:05:00,
2013-02-20 22:07:00,40.1,37.9,30.18,SSE,157,0.0,0.0,92,0.00,,,0.10,LWC V2.11 B50,2013-02-21 06:07:00,
2013-02-20 22:10:00,50.1,45.8,30.24,SE,127,1.4,0.0,85,0.00,,,0.00,WeatherCatV1.15B25,2013-02-21 06:10:00,
2013-02-20 22:11:00,40.1,37.9,30.18,ESE,112,0.0,0.0,92,0.00,,,0.10,LWC V2.11 B50,2013-02-21 06:11:00,
2013-02-20 22:15:00,50.1,45.8,30.24,SE,127,1.4,0.0,85,0.00,,,0.00,WeatherCatV1.15B25,2013-02-21 06:15:00,
2013-02-20 22:16:00,40.1,37.9,30.18,SSE,157,0.0,0.0,92,0.00,,,0.10,LWC V2.11 B50,2013-02-21 06:16:00,
2013-02-20 22:20:00,50.1,45.8,30.24,SE,127,1.4,0.0,85,0.00,,,0.00,WeatherCatV1.15B25,2013-02-21 06:20:00,
2013-02-20 22:21:00,40.3,38.1,30.19,SSE,157,0.0,0.0,92,0.00,,,0.10,LWC V2.11 B50,2013-02-21 06:21:00,
2013-02-20 22:25:00,50.1,45.8,30.24,SE,127,1.4,0.0,85,0.00,,,0.00,WeatherCatV1.15B25,2013-02-21 06:25:00,
2013-02-20 22:27:00,40.3,38.1,30.18,WSW,247,0.0,0.0,92,0.00,,,0.10,LWC V2.11 B50,2013-02-21 06:27:00,
2013-02-20 22:30:00,50.1,45.8,30.24,SE,127,1.4,0.0,85,0.00,,,0.00,WeatherCatV1.15B25,2013-02-21 06:30:00,
2013-02-20 22:32:00,40.3,38.1,30.18,South,180,0.0,0.0,92,0.00,,,0.10,LWC V2.11 B50,2013-02-21 06:32:00,
2013-02-20 22:35:00,50.1,45.8,30.24,SE,127,1.4,0.0,85,0.00,,,0.00,WeatherCatV1.15B25,2013-02-21 06:35:00,
2013-02-20 22:37:00,40.3,38.1,30.18,SSE,157,0.0,0.0,92,0.00,,,0.10,LWC V2.11 B50,2013-02-21 06:37:00,
2013-02-20 22:40:00,50.1,45.8,30.24,SE,127,1.4,0.0,85,0.00,,,0.00,WeatherCatV1.15B25,2013-02-21 06:40:00,
2013-02-20 22:42:00,40.3,38.1,30.18,ESE,112,0.0,0.0,92,0.00,,,0.10,LWC V2.11 B50,2013-02-21 06:42:00,
2013-02-20 22:45:00,50.1,45.8,30.24,SE,127,1.4,0.0,85,0.00,,,0.00,WeatherCatV1.15B25,2013-02-21 06:45:00,
2013-02-20 22:47:00,40.3,38.1,30.18,SSE,157,0.0,0.0,92,0.00,,,0.10,LWC V2.11 B50,2013-02-21 06:47:00,
2013-02-20 22:50:00,50.1,45.8,30.24,SE,127,1.4,0.0,85,0.00,,,0.00,WeatherCatV1.15B25,2013-02-21 06:50:00,
2013-02-20 22:52:00,40.1,37.9,30.17,ESE,112,0.0,0.0,92,0.00,,,0.10,LWC V2.11 B50,2013-02-21 06:52:00,
2013-02-20 22:55:00,50.1,45.8,30.24,SE,127,1.4,0.0,85,0.00,,,0.00,WeatherCatV1.15B25,2013-02-21 06:55:00,
2013-02-20 22:57:00,39.9,37.8,30.17,ENE,67,0.0,0.0,92,0.00,,,0.10,LWC V2.11 B50,2013-02-21 06:57:00,
2013-02-20 23:00:00,50.1,45.8,30.24,SE,127,1.4,0.0,85,0.00,,,0.00,WeatherCatV1.15B25,2013-02-21 07:00:00,
2013-02-20 23:02:00,39.9,37.8,30.17,ESE,112,0.0,0.0,92,0.00,,,0.10,LWC V2.11 B50,2013-02-21 07:02:00,
2013-02-20 23:05:00,50.1,45.8,30.24,SE,127,1.4,0.0,85,0.00,,,0.00,WeatherCatV1.15B25,2013-02-21 07:05:00,
2013-02-20 23:07:00,39.9,37.8,30.16,NE,45,0.0,0.0,92,0.00,,,0.10,LWC V2.11 B50,2013-02-21 07:07:00,
2013-02-20 23:10:00,50.1,45.8,30.24,SE,127,1.4,0.0,85,0.00,,,0.00,WeatherCatV1.15B25,2013-02-21 07:10:00,
2013-02-20 23:12:00,39.7,37.6,30.17,SSW,202,0.0,0.0,92,0.00,,,0.10,LWC V2.11 B50,2013-02-21 07:12:00,
2013-02-20 23:15:00,50.1,45.8,30.24,SE,127,1.4,0.0,85,0.00,,,0.00,WeatherCatV1.15B25,2013-02-21 07:15:00,
2013-02-20 23:17:00,39.6,37.4,30.17,SE,135,0.0,0.0,92,0.00,,,0.10,LWC V2.11 B50,2013-02-21 07:17:00,
2013-02-20 23:20:00,50.1,45.8,30.24,SE,127,1.4,0.0,85,0.00,,,0.00,WeatherCatV1.15B25,2013-02-21 07:20:00,
2013-02-20 23:22:00,39.4,37.2,30.17,SE,135,0.0,0.0,92,0.00,,,0.10,LWC V2.11 B50,2013-02-21 07:22:00,
2013-02-20 23:25:00,50.1,45.8,30.24,SE,127,1.4,0.0,85,0.00,,,0.00,WeatherCatV1.15B25,2013-02-21 07:25:00,
2013-02-20 23:27:00,39.4,37.2,30.17,SE,135,0.0,0.0,92,0.00,,,0.10,LWC V2.11 B50,2013-02-21 07:27:00,
2013-02-20 23:30:00,50.1,45.8,30.24,SE,127,1.4,0.0,85,0.00,,,0.00,WeatherCatV1.15B25,2013-02-21 07:30:00,
2013-02-20 23:32:00,39.4,37.2,30.16,ESE,112,0.0,0.0,92,0.00,,,0.10,LWC V2.11 B50,2013-02-21 07:32:00,
2013-02-20 23:35:00,50.1,45.8,30.24,SE,127,1.4,0.0,85,0.00,,,0.00,WeatherCatV1.15B25,2013-02-21 07:35:00,
2013-02-20 23:37:00,39.0,36.9,30.17,South,180,0.0,0.0,92,0.00,,,0.10,LWC V2.11 B50,2013-02-21 07:37:00,
2013-02-20 23:40:00,50.1,45.8,30.24,SE,127,1.4,0.0,85,0.00,,,0.00,WeatherCatV1.15B25,2013-02-21 07:40:00,
2013-02-20 23:43:00,39.0,36.9,30.16,SSE,157,0.0,0.0,92,0.00,,,0.10,LWC V2.11 B50,2013-02-21 07:43:00,
2013-02-20 23:45:00,50.1,45.8,30.24,SE,127,1.4,0.0,85,0.00,,,0.00,WeatherCatV1.15B25,2013-02-21 07:45:00,
2013-02-20 23:48:00,39.0,36.9,30.16,SW,225,1.1,1.1,92,0.00,,,0.10,LWC V2.11 B50,2013-02-21 07:48:00,
2013-02-20 23:50:00,50.1,45.8,30.24,SE,127,1.4,0.0,85,0.00,,,0.00,WeatherCatV1.15B25,2013-02-21 07:50:00,
2013-02-20 23:53:00,39.0,36.9,30.17,SSE,157,0.0,1.3,92,0.00,,,0.10,LWC V2.11 B50,2013-02-21 07:53:00,
2013-02-20 23:55:00,50.1,45.8,30.24,SE,127,1.4,0.0,85,0.00,,,0.00,WeatherCatV1.15B25,2013-02-21 07:55:00,
2013-02-20 23:58:00,39.0,36.9,30.17,SW,225,2.0,2.0,92,0.00,,,0.10,LWC V2.11 B50,2013-02-21 07:58:00,